Regional Weather Roundup
Issued by NWS

Home | Current Version | Previous Version | Graphics & Text | Print | Product List | Glossary On
Versions: 1 2 3 4 5 6 7 8 9 10 11 12 13 14 15 16 17 18 19 20 21 22 23 24 25 26 27 28 29 30 31 32 33 34 35 36 37 38 39 40 41 42 43 44 45 46 47 48 49 50
117
ASUS43 KMKX 241011
RWRWI

WISCONSIN REGIONAL WEATHER ROUNDUP
NATIONAL WEATHER SERVICE MILWAUKEE/SULLIVAN WI
500 AM CDT MON APR 24 2017

NOTE: "FAIR" INDICATES FEW OR NO CLOUDS BELOW 12,000 FEET WITH NO
SIGNIFICANT WEATHER AND/OR OBSTRUCTIONS TO VISIBILITY.

WIZ001-002-006>008-014>016-023>028-241100-
NORTHWEST WISCONSIN

CITY           SKY/WX    TMP DP  RH WIND       PRES   REMARKS
SUPERIOR ARPT  CLOUDY    35  29  80 E16G24    29.96F WCI  25
ASHLAND        MOCLDY    34  27  75 NE8       29.99F WCI  27
HAYWARD        PTCLDY    37  30  75 E6        29.92F WCI  32
SIREN          PTCLDY    37  32  84 E6        29.88F WCI  32
CUMBERLAND     CLEAR     37  34  87 SE9       29.89F WCI  31
RICE LAKE      CLEAR     40  36  83 SE14      29.92S WCI  33
CHETEK         CLEAR     39  36  89 SE6       29.92S WCI  34
LADYSMITH      CLEAR     37  32  83 SE5       29.96S WCI  33
EAU CLAIRE     PTCLDY    41  35  79 SE6       29.92F
MENOMONIE      PTCLDY    42  38  83 E9        29.91S
NEW RICHMOND   PTCLDY    44  39  82 SE10      29.85F
OSCEOLA        CLOUDY    46  40  82 SE8       29.87F
$$

WIZ003>005-009-010-017-018-241100-
NORTH CENTRAL WISCONSIN

CITY           SKY/WX    TMP DP  RH WIND       PRES   REMARKS
MANITOWISH WTR CLOUDY    31  19  61 SE6       29.97F WCI  25
ARBOR VITAE    CLOUDY    33  22  64 SE9       29.96F WCI  25
WOODRUFF       CLOUDY    33  22  64 SE9       29.96F WCI  25
RHINELANDER    PTCLDY    34  23  64 SE10      29.99F WCI  26
EAGLE RIVER    CLOUDY    30  18  60 E9        29.99F WCI  22
LAND O LAKES   CLOUDY    30  18  60 SE6       30.01F WCI  24
PHILLIPS       CLEAR     33  27  76 E7        29.95F WCI  27
TOMAHAWK       PTCLDY    31  24  72 CALM      29.99F
MEDFORD        CLEAR     32  28  85 SE8       29.96S WCI  25
MERRILL        PTCLDY    32  25  76 SE7       30.00S WCI  26
$$

WIZ029-030-035-036-043>047-241100-
CENTRAL WISCONSIN

CITY           SKY/WX    TMP DP  RH WIND       PRES   REMARKS
WAUSAU         CLEAR     32  26  78 SE10      29.98F WCI  24
MOSINEE        CLEAR     32  28  86 E8        30.00F WCI  25
MARSHFIELD     CLEAR     34  28  79 SE9       29.97F WCI  27
STEVENS POINT  CLEAR     32  28  86 E7        30.01S WCI  25
WAUPACA        PTCLDY    36  29  76 NE3       30.02F
WAUTOMA        PTCLDY    35  30  82 E6        30.01F WCI  30
WISC RAPIDS    PTCLDY    34  28  79 E6        30.00F WCI  29
CAMP DOUGLAS   CLOUDY    36  32  84 SE8       29.98F WCI  30
$$

WIZ011>013-019>022-031-037>040-048>050-241100-
NORTHEAST WISCONSIN

CITY           SKY/WX    TMP DP  RH WIND       PRES   REMARKS
ANTIGO         CLOUDY    29  23  78 E8        30.01R WCI  21
SHAWANO        PTCLDY    36  30  80 E8        30.04F WCI  30
OCONTO         PTCLDY    35  30  82 CALM      30.05F
STURGEON BAY   CLEAR     35  31  85 E8        30.05F WCI  29
GREEN BAY      PTCLDY    36  31  82 NE5       30.04F WCI  32
MANITOWOC      CLEAR     36  31  82 CALM      30.04F
APPLETON       PTCLDY    34  28  80 E5        30.00F WCI  30
CLINTONVILLE   PTCLDY    34  30  86 E6        30.03F WCI  29
OSHKOSH        CLOUDY    39  32  76 E7        30.01F WCI  34
$$

WIZ032>034-041-042-053>061-241100-
SOUTHWEST WISCONSIN

CITY           SKY/WX    TMP DP  RH WIND       PRES   REMARKS
LA CROSSE      CLEAR     48  40  73 E10       29.92F
SPARTA         CLEAR     38  36  91 E5        29.97S WCI  35
VIROQUA        CLEAR     42  39  91 E10       29.95S
BOSCOBEL       CLEAR     45  41  86 CALM      29.97S
PRAIRIE DU CHI CLEAR     45  35  68 E5        29.95R
PLATTEVILLE    CLEAR     44  36  73 E7        29.97S
$$

WIZ056-057-062-063-064-067-068-241100-
SOUTH CENTRAL WISCONSIN

CITY           SKY/WX    TMP DP  RH WIND       PRES   REMARKS
REEDSBURG      CLOUDY    36  35  98 E6        29.98F WCI  31
BARABOO/DELLS  CLOUDY    36  32  88 E3        29.99F
LONE ROCK      CLEAR     39  36  89 E6        29.98F WCI  35
MINERAL POINT  CLEAR     46  36  66 SE8       29.96F
MADISON        CLEAR     37  33  85 E5        30.00F WCI  33
MIDDLETON      CLEAR     39  37  91 E5        30.00F
WATERTOWN      CLOUDY    35  35 100 NE3       30.01S
MONROE         CLEAR     39  36  87 E5        29.98S
JANESVILLE     CLEAR     36  36 100 NE3       30.00S
$$

WIZ051-052-058>065-066-070>072-241100-
SOUTHEAST WISCONSIN

CITY           SKY/WX    TMP DP  RH WIND       PRES   REMARKS
MILWAUKEE      PTCLDY    39  34  82 N6        30.03S WCI  35
WAUKESHA       CLEAR     34  32  93 E3        30.03S
MILWAUKEE/TIMM CLEAR     36  32  87 CALM      30.04S
RACINE         CLEAR     38  35  89 NE5       30.04F WCI  34
KENOSHA        CLEAR     36  34  92 NE5       30.02F WCI  32
FOND DU LAC    PTCLDY    36  28  73 E6        30.02F WCI  31
SHEBOYGAN      CLEAR     35  30  82 NE6       30.03F WCI  30
WEST BEND      CLEAR     34  32  93 CALM      30.03S
JUNEAU         CLOUDY    36  32  87 NE5       30.02F WCI  32
$$

LSZ147-162-241100-
LAKE SUPERIOR

STATION/POSITION TIME  TEMP    WIND        PRES    WAVE
                       AIR SEA DIR/SP/G            HT/PER
                 (UTC) (F)     (DEG/KT/KT) (MB)    (FT/S)
DEVILS ISLAND    1000   34      70/ 26/ 28 1017.1F
SAXON HARBOR     0930   35      80/  4/  8 1015.9F
$$

LMZ867-665-643>646-241100-
LAKE MICHIGAN

STATION/POSITION TIME  TEMP    WIND        PRES    WAVE
                       AIR SEA DIR/SP/G            HT/PER
                 (UTC) (F)     (DEG/KT/KT) (MB)    (FT/S)
CHAMBERS ISLAND  0940   35      40/ 11/ 13 1017.6F
N MID LAKE BUOY  0950   36 37   90/ 14/ 17 1019.3F   3/ 4
NORTHPORT PIER   0940   36      70/ 11/ 13 1018.3S
KEWAUNEE LAKESHO 0948   38      80/  7/ 10 1016.9F
SHEBOYGAN LAKESH 1000   39      20/ 10/ 11 1017.3F
PORT WASHINGTON  0940   39     350/  4/  7 1017.9S
MILWAUKEE LAKESH 0950   40      30/  8/  9   N/A
S MID LAKE BUOY  0950   41 40   30/  4/  6 1017.2R   3/ 6
KENOSHA   LAKESH 1000   42      30/  8/ 10 1016.6
$$

TC  - TEMPERATURE IN CELSIUS
VSB - VISIBILITY IN STATUTE MILES
WCI - WIND CHILL INDEX
HX  - HEAT INDEX





USA.gov is the U.S. government's official web portal to all federal, state and local government web resources and services.